Location: *
(49.7115°N, 15.0136°E)
Time: 19:58:42
(UTC+00:00)

Cosmos 2195 Rocket - Pass Details

Date: 27 February 2020
Orbit: 949 x 993 km, 82.9° (Epoch: 05 April)

Event Time Altitude Azimuth Distance (km) Brightness Sun altitude
Rises 18:55:58 0° 350° (N) 3,638 7.8 -22.9°
Reaches altitude 10° 18:58:28 10° 350° (N) 2,691 7.1 -23.3°
Maximum altitude 19:04:38 89° 266° (W) 965 4.4 -24.2°
Enters shadow 19:08:27 25° 173° (S) 1,835 5.7 -24.8°
